Tracking 19485 objects as of 21-Jan-2019
HD Live streaming from Space Station
objects crossing your sky now

COSMOS 1574

Track COSMOS 1574 now!
10-day predictions
COSMOS 1574 is classified as:


NORAD ID: 15055
Int'l Code: 1984-062A
Perigee: 970.5 km
Apogee: 1,012.1 km
Inclination: 83.0 °
Period: 104.8 minutes
Semi major axis: 7362 km
RCS: 2.6972 m2 (large)
Launch date: June 21, 1984
Source: Commonwealth of Independent States (former USSR) (CIS)
Launch site: PLESETSK MISSILE AND SPACE COMPLEX (PKMTR)
aabbcc
Your satellite tracking list
Your tracking list is empty




NASA's NSSDC Master Catalog

Two Line Element Set (TLE):
1 15055U 84062A   19020.84207811 +.00000048 +00000-0 +34514-4 0  9992
2 15055 082.9574 275.3451 0028207 032.3036 036.8888 13.74307248734077
Source of the keplerian elements: AFSPC